Torna al catalogo

FENGYUN 1C DEB

LostSSO
NORAD 31687·DEBRIS·🇨🇳 China

Lanciato May 10, 1999 da Taiyuan Satellite Launch Center

Loading…

Prossimi Passaggi (prossime 24 ore)

TLE

ObsoletoSource: Space-Track

Epoca: Sep 18, 2022, 22:41 UTC

1 31687U 99025CCV 22261.94517906  .00002214  00000-0  95882-3 0  9998
2 31687  98.7754 334.4837 0012292 268.9281  91.0490 14.25286841797536

Traccia FENGYUN 1C DEB in tempo reale con AllMySat

Download on the App Store